Weather History for KAJZ - November, 2013

Change the Weather History Date:

Sunday, November 3, 2013

  Actual Average (KMTJ) Record (KMTJ)
Temperature  
Mean Temperature 50 °F 43 °F  
Max Temperature 65 °F 57 °F 64 °F (1999)
Min Temperature 34 °F 29 °F 19 °F (2004)
Degree Days  
Heating Degree Days 16 22  
Month to date heating degree days 65  
Since 1 July heating degree days 656  
Cooling Degree Days 0 0  
Month to date cooling degree days 0  
Year to date cooling degree days 643  
Moisture  
Dew Point 26 °F    
Average Humidity 44    
Maximum Humidity 76    
Minimum Humidity 20    
Precipitation  
Precipitation 0.00 in 0.03 in 0.09 in (1996)
Month to date precipitation 0.09  
Year to date precipitation 9.93  
Sea Level Pressure  
Sea Level Pressure 29.83 in    
Wind  
Wind Speed 9 mph (SW)    
Max Wind Speed 26 mph    
Max Gust Speed 38 mph    
Visibility 10 miles    
Events      
T = Trace of Precipitation, MM = Missing Value Source: NWS Daily Summary

Daily Weather History Graph

Daily Weather History Graph

Search for Another Location

Airport or City:

Trip Planner

Search our weather history database for the weather conditions in past years. The results will help you decide how hot, cold, wet, or windy it might be!

Date:

Astronomy

Nov. 03, 2013 Rise Set
Actual Time 6:41 AM MST 5:09 PM MST
Civil Twilight 6:14 AM MST 5:37 PM MST
Nautical Twilight 5:42 AM MST 6:08 PM MST
Astronomical Twilight 5:11 AM MST 6:39 PM MST
Moon 6:48 AM MST (11/3) 5:27 PM MST (11/3)
Length of Visible Light 11h 23m
Length of Day
10h 27m
New Moon, 0% of the Moon is Illuminated
Nov 3
New Moon
Nov 9
First Quarter
Nov 17
Full
Nov 25
Last Quarter
Dec 2
New

Hourly Weather History & Observations

Time (MST) Temp. Windchill Dew Point Humidity Pressure Visibility Wind Dir Wind Speed Gust Speed Precip Events Conditions
12:15 AM 41.2 °F 36.0 °F 26.4 °F 56% 29.97 in 10.0 mi ENE 8.1 mph - N/A   Clear
12:35 AM 42.3 °F 36.8 °F 26.2 °F 53% 29.96 in 10.0 mi ENE 9.2 mph - N/A   Clear
12:55 AM 42.3 °F 40.5 °F 26.8 °F 54% 29.96 in 10.0 mi ENE 3.5 mph - N/A   Clear
1:15 AM 40.1 °F 36.9 °F 27.9 °F 62% 29.95 in 10.0 mi ESE 4.6 mph - N/A   Clear
1:35 AM 39.0 °F 33.4 °F 28.6 °F 66% 29.94 in 7.0 mi ENE 8.1 mph - N/A   Clear
1:55 AM 41.2 °F 38.2 °F 27.5 °F 58% 29.93 in 7.0 mi ENE 4.6 mph - N/A   Clear
1:15 AM 40.5 °F 36.5 °F 27.3 °F 59% 29.93 in 10.0 mi East 5.8 mph - N/A   Clear
1:35 AM 41.0 °F 36.4 °F 27.3 °F 58% 29.92 in 10.0 mi NNE 6.9 mph - N/A   Clear
1:55 AM 39.7 °F 34.3 °F 27.5 °F 62% 29.92 in 10.0 mi East 8.1 mph - N/A   Clear
2:15 AM 40.5 °F 33.6 °F 27.3 °F 59% 29.90 in 10.0 mi ENE 11.5 mph - N/A   Clear
2:35 AM 40.1 °F 36.1 °F 27.1 °F 60% 29.89 in 10.0 mi East 5.8 mph - N/A   Clear
2:55 AM 40.5 °F 36.5 °F 26.6 °F 58% 29.88 in 10.0 mi East 5.8 mph - N/A   Clear
3:15 AM 39.2 °F - 27.0 °F 62% 29.88 in 10.0 mi Calm Calm - N/A   Clear
3:35 AM 36.9 °F - 27.9 °F 70% 29.87 in 10.0 mi Calm Calm - N/A   Clear
3:55 AM 35.8 °F - 27.5 °F 72% 29.87 in 10.0 mi Calm Calm - N/A   Clear
4:15 AM 34.3 °F 29.2 °F 27.3 °F 76% 29.87 in 10.0 mi NE 5.8 mph - N/A   Clear
4:35 AM 36.1 °F 29.9 °F 27.1 °F 70% 29.88 in 10.0 mi NE 8.1 mph - N/A   Clear
4:55 AM 37.9 °F 32.7 °F 27.0 °F 65% 29.87 in 10.0 mi ENE 6.9 mph - N/A   Clear
5:15 AM 38.8 °F 33.8 °F 26.8 °F 62% 29.88 in 10.0 mi East 6.9 mph - N/A   Clear
5:35 AM 36.5 °F 31.8 °F 27.3 °F 69% 29.86 in 10.0 mi NE 5.8 mph - N/A   Clear
5:55 AM 39.7 °F 37.6 °F 27.5 °F 62% 29.86 in 10.0 mi ESE 3.5 mph - N/A   Clear
6:15 AM 36.7 °F 32.0 °F 28.0 °F 71% 29.84 in 10.0 mi East 5.8 mph - N/A   Clear
6:35 AM 37.4 °F 30.3 °F 28.0 °F 69% 29.84 in 10.0 mi East 10.4 mph - N/A   Clear
6:55 AM 39.7 °F - 26.6 °F 59% 29.84 in 10.0 mi Calm Calm - N/A   Clear
7:15 AM 38.3 °F 35.9 °F 28.2 °F 67% 29.84 in 10.0 mi ESE 3.5 mph - N/A   Clear
7:35 AM 37.9 °F 34.4 °F 28.9 °F 70% 29.85 in 10.0 mi North 4.6 mph - N/A   Clear
7:55 AM 41.9 °F 40.0 °F 27.9 °F 58% 29.85 in 10.0 mi SSE 3.5 mph - N/A   Clear
8:15 AM 41.5 °F 38.6 °F 29.7 °F 63% 29.85 in 10.0 mi North 4.6 mph - N/A   Clear
8:35 AM 44.8 °F 43.3 °F 30.4 °F 57% 29.86 in 10.0 mi West 3.5 mph 9.2 mph N/A   Clear
8:55 AM 46.8 °F - 28.8 °F 50% 29.85 in 10.0 mi Calm Calm - N/A   Clear
9:15 AM 50.7 °F - 28.8 °F 43% 29.85 in 10.0 mi NNE 3.5 mph - N/A   Scattered Clouds
9:35 AM 53.2 °F - 28.6 °F 39% 29.85 in 10.0 mi NE 3.5 mph - N/A   Scattered Clouds
9:55 AM 55.8 °F - 27.3 °F 34% 29.83 in 10.0 mi ESE 6.9 mph - N/A   Scattered Clouds
10:15 AM 58.1 °F - 26.4 °F 30% 29.82 in 10.0 mi East 3.5 mph - N/A   Clear
10:35 AM 59.5 °F - 26.8 °F 29% 29.81 in 10.0 mi Calm Calm - N/A   Clear
10:55 AM 61.0 °F - 25.9 °F 26% 29.81 in 10.0 mi South 4.6 mph - N/A   Clear
11:15 AM 62.1 °F - 25.0 °F 24% 29.80 in 10.0 mi Calm Calm - N/A   Scattered Clouds
11:35 AM 63.7 °F - 26.4 °F 24% 29.78 in 10.0 mi SW 5.8 mph - N/A   Mostly Cloudy
11:55 AM 62.6 °F - 25.3 °F 24% 29.77 in 10.0 mi SW 4.6 mph - N/A   Mostly Cloudy
12:15 PM 64.8 °F - 24.1 °F 21% 29.75 in 10.0 mi WSW 13.8 mph 23.0 mph N/A   Mostly Cloudy
12:35 PM 65.5 °F - 25.3 °F 22% 29.74 in 10.0 mi SSW 15.0 mph 24.2 mph N/A   Scattered Clouds
12:55 PM 65.5 °F - 25.2 °F 22% 29.74 in 10.0 mi SSW 16.1 mph 23.0 mph N/A   Scattered Clouds
1:15 PM 62.1 °F - 25.3 °F 25% 29.73 in 10.0 mi WSW 15.0 mph 19.6 mph N/A   Scattered Clouds
1:35 PM 61.7 °F - 24.1 °F 24% 29.73 in 10.0 mi WSW 24.2 mph 29.9 mph N/A   Scattered Clouds
1:55 PM 63.1 °F - 24.6 °F 23% 29.73 in 10.0 mi SW 18.4 mph 24.2 mph N/A   Mostly Cloudy
2:15 PM 65.1 °F - 24.1 °F 21% 29.73 in 10.0 mi SW 19.6 mph 25.3 mph N/A   Overcast
2:35 PM 64.9 °F - 22.3 °F 20% 29.73 in 10.0 mi SW 20.7 mph 28.8 mph N/A   Overcast
2:55 PM 64.2 °F - 23.2 °F 21% 29.72 in 10.0 mi SSW 16.1 mph 24.2 mph N/A   Mostly Cloudy
3:15 PM 63.5 °F - 22.1 °F 21% 29.72 in 10.0 mi SW 18.4 mph 23.0 mph N/A   Scattered Clouds
3:35 PM 63.0 °F - 21.0 °F 20% 29.71 in 10.0 mi SW 23.0 mph 31.1 mph N/A   Clear
3:55 PM 62.6 °F - 22.8 °F 22% 29.71 in 10.0 mi SSW 17.3 mph 23.0 mph N/A   Clear
4:15 PM 61.7 °F - 22.8 °F 23% 29.71 in 10.0 mi SSW 18.4 mph 27.6 mph N/A   Clear
4:35 PM 59.4 °F - 22.6 °F 24% 29.71 in 10.0 mi SSW 10.4 mph - N/A   Clear
4:55 PM 58.5 °F - 21.6 °F 24% 29.72 in 10.0 mi SSW 11.5 mph 21.9 mph N/A   Clear
5:15 PM 56.5 °F - 22.3 °F 27% 29.72 in 10.0 mi SW 9.2 mph - N/A   Clear
5:35 PM 56.3 °F - 23.2 °F 28% 29.73 in 10.0 mi WSW 11.5 mph - N/A   Mostly Cloudy
5:55 PM 57.0 °F - 22.6 °F 26% 29.75 in 10.0 mi NW 11.5 mph 26.5 mph N/A   Overcast
6:15 PM 55.8 °F - 25.9 °F 32% 29.77 in 7.0 mi West 25.3 mph 38.0 mph N/A   Overcast
6:35 PM 53.1 °F - 29.5 °F 40% 29.79 in 10.0 mi West 18.4 mph 26.5 mph N/A   Mostly Cloudy
6:55 PM 52.7 °F - 30.0 °F 42% 29.82 in 10.0 mi West 19.6 mph 29.9 mph N/A   Overcast
7:15 PM 52.3 °F - 29.8 °F 42% 29.84 in 10.0 mi West 26.5 mph 31.1 mph N/A   Overcast
7:35 PM 50.9 °F - 29.7 °F 44% 29.85 in 10.0 mi WNW 13.8 mph 26.5 mph N/A   Overcast
7:55 PM 50.0 °F - 28.6 °F 44% 29.86 in 10.0 mi WNW 21.9 mph 29.9 mph N/A   Scattered Clouds
8:15 PM 49.3 °F - 27.9 °F 44% 29.86 in 10.0 mi WNW 18.4 mph 21.9 mph N/A   Scattered Clouds
8:35 PM 49.3 °F - 25.3 °F 39% 29.87 in 10.0 mi West 18.4 mph 25.3 mph N/A   Scattered Clouds
8:55 PM 48.4 °F - 25.9 °F 42% 29.89 in 10.0 mi WNW 20.7 mph 28.8 mph N/A   Clear
9:15 PM 47.3 °F - 26.8 °F 45% 29.91 in 10.0 mi WNW 11.5 mph 25.3 mph N/A   Scattered Clouds
9:35 PM 46.9 °F - 23.5 °F 40% 29.92 in 10.0 mi West 10.4 mph 23.0 mph N/A   Scattered Clouds
9:55 PM 46.0 °F 42.5 °F 22.8 °F 40% 29.92 in 10.0 mi West 6.9 mph 23.0 mph N/A   Clear
10:15 PM 44.8 °F 37.4 °F 22.8 °F 42% 29.93 in 10.0 mi WNW 17.3 mph 25.3 mph N/A   Clear
10:35 PM 43.7 °F 37.3 °F 22.8 °F 44% 29.93 in 10.0 mi SW 12.7 mph 16.1 mph N/A   Clear
10:55 PM 41.2 °F 32.7 °F 25.0 °F 53% 29.93 in 10.0 mi SSW 17.3 mph 20.7 mph N/A   Clear